Погода в Бистрице

Румыния     47°07′52″N   24°29′15″E
темп.,
°C
ветер,
м/с
пор.,
м/с
влажн.,
%
обл.,
%
осадки,
мм/ч
давл.,
гПа
погр.,
м
18 мая, вт
вт1800:00+11юв2392100 1.3 100477
03:00+10ююв1294100 2.8 100356
06:00+9зсз2590100 3.4 1005220
09:00+8ю3695100 4.8 1005462
12:00+8ю3695100 1.3 1006634
15:00+8з2397100 2.4 1006314
18:00+8з51096100 2.0 1008707
21:00+8з41096100 3.1 1009742
19 мая, ср
ср1900:00+8з3698100 0.1 1010455
03:00+8з3897100 0.1 1011627
06:00+7юз229742 0.0 101264
09:00+10зюз238854 0.1 1012495
12:00+14з346716 0.1 10111123
15:00+16зюз4459100 0.1 10101534
18:00+15зюз236894 0.1 1010807
21:00+10з118497 0.2 101010
20 мая, чт
чт2000:00+10в1190100 0.4 101015
03:00+9св1191100 0.8 100920
06:00+9юв1194100 2.3 100937
09:00+9св3594100 10.9 1010296
12:00+12ссв2272100 0.3 1009831
15:00+10ссв1293100 4.5 1010140
18:00+10ссв1390100 1.2 1010277
21:00+9ссз2290100 1.4 101129
21 мая, пт
пт2100:00+8сз119087 0.0 101222
03:00+8ссв118997 0.0 101216
06:00+7ссв0194100 0.3 101318
09:00+8ссз2394100 1.7 1015208
12:00+10ссв2377100 0.1 1016958
15:00+10ссв347966 0.2 1017599
18:00+11ссв247342 0.1 1017902
21:00+9св238055 0.1 101861
22 мая, сб
сб2200:00+7ссв228910 0.0 101920
03:00+6св228830 0.0 101914
06:00+6всв22905 0.0 101914
09:00+11ю11764 0.0 1018376
12:00+15зюз21665 0.0 1017806
15:00+17зюз33611 0.0 10161111
18:00+17зюз12632 0.0 1015890
21:00+12вюв118044 0.0 101511